• In Hungary
  • List of Countries
  • For 7 days
  • Water Temperature
  • Satellite Maps
  • Weather Map
  • News
  • Weather Widgets
  • user-avatar
    Login

    Hourly Weather Benalmadena

    Today, 24 June, Sunday

    Time Temperature Precipitation Wind Pressure Humidity
    00:00 +25°C° 0 mm 2 mps 739 mmHg 50%
    01:00 +24°C° 0 mm 2 mps 739 mmHg 50%
    02:00 +24°C° 0 mm 1 mps 739 mmHg 50%
    03:00 +24°C° 0 mm 1 mps 738 mmHg 50%
    04:00 +24°C° 0 mm 1 mps 739 mmHg 50%
    05:00 +24°C° 0 mm 1 mps 739 mmHg 51%
    06:00 +25°C° 0 mm 1 mps 739 mmHg 51%
    07:00 +27°C° 0 mm 1 mps 739 mmHg 46%
    08:00 +29°C° 0 mm 2 mps 739 mmHg 41%
    09:00 +31°C° 0 mm 2 mps 739 mmHg 37%
    10:00 +32°C° 0 mm 2 mps 739 mmHg 34%
    11:00 +34°C° 0 mm 2 mps 739 mmHg 32%
    12:00 +35°C° 0 mm 2 mps 739 mmHg 30%
    13:00 +35°C° 0 mm 2 mps 739 mmHg 29%
    14:00 +36°C° 0 mm 2 mps 738 mmHg 29%
    15:00 +36°C° 0 mm 2 mps 738 mmHg 28%
    16:00 +35°C° 0 mm 2 mps 738 mmHg 30%
    17:00 +35°C° 0 mm 2 mps 738 mmHg 33%
    18:00 +34°C° 0 mm 2 mps 738 mmHg 35%
    19:00 +31°C° 0 mm 2 mps 738 mmHg 42%
    20:00 +28°C° 0 mm 2 mps 738 mmHg 50%
    21:00 +26°C° 0 mm 1 mps 739 mmHg 57%
    22:00 +26°C° 0 mm 1 mps 739 mmHg 59%
    23:00 +25°C° 0 mm 2 mps 739 mmHg 61%

    Tomorrow, 25 June, Monday

    Time Temperature Precipitation Wind Pressure Humidity
    00:00 +24°C° 0 mm 2 mps 740 mmHg 63%
    01:00 +24°C° 0 mm 2 mps 740 mmHg 63%
    02:00 +24°C° 0 mm 1 mps 739 mmHg 64%
    03:00 +24°C° 0 mm 1 mps 739 mmHg 64%
    04:00 +24°C° 0 mm 1 mps 739 mmHg 64%
    05:00 +24°C° 0 mm 1 mps 739 mmHg 64%
    06:00 +24°C° 0 mm 1 mps 740 mmHg 64%
    07:00 +26°C° 0 mm 2 mps 740 mmHg 58%
    08:00 +28°C° 0 mm 2 mps 740 mmHg 52%
    09:00 +30°C° 0 mm 2 mps 740 mmHg 45%
    10:00 +31°C° 0 mm 2 mps 740 mmHg 42%
    11:00 +33°C° 0 mm 3 mps 740 mmHg 38%
    12:00 +34°C° 0 mm 3 mps 740 mmHg 35%
    13:00 +35°C° 0 mm 3 mps 740 mmHg 34%
    14:00 +35°C° 0 mm 3 mps 740 mmHg 32%
    15:00 +36°C° 0 mm 3 mps 739 mmHg 31%
    16:00 +35°C° 0 mm 3 mps 739 mmHg 33%
    17:00 +34°C° 0 mm 2 mps 739 mmHg 35%
    18:00 +32°C° 0 mm 2 mps 739 mmHg 37%
    19:00 +30°C° 0 mm 2 mps 739 mmHg 43%
    20:00 +29°C° 0 mm 1 mps 740 mmHg 49%
    21:00 +27°C° 0 mm 1 mps 740 mmHg 56%
    22:00 +26°C° 0 mm 1 mps 740 mmHg 58%
    23:00 +26°C° 0 mm 1 mps 740 mmHg 60%

    Day after tomorrow, 26 June, Tuesday

    Time Temperature Precipitation Wind Pressure Humidity
    00:00 +25°C° 0 mm 2 mps 740 mmHg 62%
    01:00 +25°C° 0 mm 2 mps 740 mmHg 63%
    02:00 +25°C° 0 mm 2 mps 739 mmHg 64%
    03:00 +24°C° 0 mm 2 mps 739 mmHg 65%
    04:00 +24°C° 0 mm 2 mps 739 mmHg 66%
    05:00 +25°C° 0 mm 2 mps 739 mmHg 66%
    06:00 +25°C° 0 mm 2 mps 739 mmHg 67%
    07:00 +27°C° 0 mm 2 mps 740 mmHg 60%
    08:00 +29°C° 0 mm 2 mps 740 mmHg 52%
    09:00 +31°C° 0 mm 2 mps 740 mmHg 45%
    10:00 +32°C° 0 mm 2 mps 740 mmHg 41%
    11:00 +34°C° 0 mm 3 mps 740 mmHg 37%
    12:00 +35°C° 0 mm 3 mps 740 mmHg 33%
    13:00 +36°C° 0 mm 3 mps 739 mmHg 32%
    14:00 +36°C° 0 mm 3 mps 739 mmHg 32%
    15:00 +36°C° 0 mm 3 mps 739 mmHg 31%
    16:00 +35°C° 0 mm 3 mps 739 mmHg 33%
    17:00 +35°C° 0 mm 3 mps 739 mmHg 35%
    18:00 +34°C° 0 mm 3 mps 739 mmHg 37%
    19:00 +31°C° 0 mm 3 mps 739 mmHg 41%
    20:00 +30°C° 0 mm 2 mps 739 mmHg 45%
    21:00 +28°C° 0 mm 2 mps 740 mmHg 48%
    22:00 +27°C° 0 mm 2 mps 740 mmHg 49%
    23:00 +27°C° 0 mm 2 mps 740 mmHg 50%

    27 June, Wednesday

    Time Temperature Precipitation Wind Pressure Humidity
    00:00 +26°C° 0 mm 2 mps 740 mmHg 51%
    01:00 +26°C° 0 mm 2 mps 740 mmHg 51%
    02:00 +25°C° 0 mm 2 mps 739 mmHg 51%
    03:00 +25°C° 0 mm 2 mps 739 mmHg 51%
    04:00 +25°C° 0 mm 2 mps 739 mmHg 52%
    05:00 +25°C° 0 mm 2 mps 740 mmHg 52%
    06:00 +25°C° 0 mm 1 mps 740 mmHg 53%
    07:00 +27°C° 0 mm 2 mps 740 mmHg 49%
    08:00 +28°C° 0 mm 2 mps 740 mmHg 44%
    09:00 +30°C° 0 mm 2 mps 740 mmHg 39%
    10:00 +31°C° 0 mm 2 mps 740 mmHg 38%
    11:00 +32°C° 0 mm 2 mps 740 mmHg 36%
    12:00 +34°C° 0 mm 3 mps 740 mmHg 34%
    13:00 +34°C° 0 mm 3 mps 739 mmHg 34%
    14:00 +34°C° 0 mm 3 mps 739 mmHg 35%
    15:00 +34°C° 0 mm 2 mps 738 mmHg 35%
    16:00 +34°C° 0 mm 2 mps 738 mmHg 37%
    17:00 +32°C° 0 mm 2 mps 738 mmHg 38%
    18:00 +31°C° 0 mm 2 mps 738 mmHg 40%
    19:00 +30°C° 0 mm 2 mps 738 mmHg 45%
    20:00 +28°C° 0 mm 1 mps 738 mmHg 50%
    21:00 +26°C° 0 mm 1 mps 739 mmHg 55%
    22:00 +26°C° 0 mm 1 mps 739 mmHg 57%
    23:00 +25°C° 0 mm 1 mps 738 mmHg 58%

    28 June, Thursday

    Time Temperature Precipitation Wind Pressure Humidity
    00:00 +25°C° 0 mm 1 mps 738 mmHg 60%
    01:00 +24°C° 0 mm 1 mps 738 mmHg 62%
    02:00 +24°C° 0 mm 1 mps 738 mmHg 63%
    03:00 +24°C° 0 mm 1 mps 738 mmHg 65%
    04:00 +24°C° 0.2 mm 1 mps 738 mmHg 65%
    05:00 +24°C° 0.2 mm 1 mps 738 mmHg 64%
    06:00 +24°C° 0.2 mm 1 mps 738 mmHg 64%
    07:00 +25°C° 0.4 mm 1 mps 738 mmHg 58%
    08:00 +27°C° 0.4 mm 1 mps 738 mmHg 52%
    09:00 +28°C° 0.4 mm 1 mps 738 mmHg 45%
    10:00 +29°C° 0.1 mm 2 mps 737 mmHg 42%
    11:00 +30°C° 0.1 mm 2 mps 737 mmHg 39%
    12:00 +31°C° 0.1 mm 2 mps 737 mmHg 36%
    13:00 +31°C° 0.3 mm 2 mps 737 mmHg 36%
    14:00 +31°C° 0.3 mm 3 mps 736 mmHg 36%
    15:00 +31°C° 0.3 mm 3 mps 736 mmHg 36%
    16:00 +30°C° 0.4 mm 3 mps 736 mmHg 39%
    17:00 +30°C° 0.4 mm 3 mps 736 mmHg 41%
    18:00 +29°C° 0.4 mm 2 mps 736 mmHg 43%
    19:00 +28°C° 0.4 mm 2 mps 736 mmHg 48%
    20:00 +27°C° 0.4 mm 2 mps 736 mmHg 53%
    21:00 +25°C° 0.4 mm 2 mps 737 mmHg 58%
    22:00 +25°C° 0.1 mm 2 mps 736 mmHg 61%
    23:00 +24°C° 0.1 mm 2 mps 736 mmHg 64%

    29 June, Friday

    Time Temperature Precipitation Wind Pressure Humidity
    00:00 +23°C° 0.1 mm 2 mps 736 mmHg 67%
    01:00 +23°C° 0 mm 2 mps 736 mmHg 68%
    02:00 +23°C° 0 mm 2 mps 736 mmHg 69%
    03:00 +21°C° 0 mm 2 mps 735 mmHg 71%
    04:00 +21°C° 0 mm 3 mps 736 mmHg 71%
    05:00 +21°C° 0 mm 3 mps 736 mmHg 71%
    06:00 +21°C° 0 mm 3 mps 736 mmHg 72%
    07:00 +24°C° 0 mm 3 mps 736 mmHg 64%
    08:00 +26°C° 0 mm 3 mps 736 mmHg 56%
    09:00 +28°C° 0 mm 3 mps 736 mmHg 48%
    10:00 +29°C° 0 mm 4 mps 736 mmHg 44%
    11:00 +30°C° 0 mm 4 mps 736 mmHg 39%
    12:00 +33°C° 0 mm 4 mps 736 mmHg 35%
    13:00 +33°C° 0 mm 4 mps 736 mmHg 33%
    14:00 +33°C° 0 mm 4 mps 736 mmHg 32%
    15:00 +34°C° 0 mm 5 mps 736 mmHg 30%
    16:00 +33°C° 0 mm 4 mps 736 mmHg 32%
    17:00 +32°C° 0 mm 4 mps 736 mmHg 33%
    18:00 +32°C° 0 mm 4 mps 736 mmHg 35%
    19:00 +29°C° 0 mm 4 mps 736 mmHg 39%
    20:00 +27°C° 0 mm 4 mps 736 mmHg 44%
    21:00 +26°C° 0 mm 4 mps 737 mmHg 48%
    22:00 +25°C° 0 mm 4 mps 737 mmHg 51%
    23:00 +23°C° 0 mm 4 mps 737 mmHg 53%
    Show more